Content
SEND FEEDBACK

Daily
Averages
Monthly
Summary
France

FLORANGE, FRANCE


Home > Europe > France
Elevation: 637 feet     Latitude: 49 30N     Longitude: 006 17E

WEATHER
 
SELECT A DAY
Number of Records: 303,262;   Date Range: 7/1/96 - 7/28/14
 
SHARE

PRINT THIS DATA

[ ← Previous Day ]
WEATHER ALMANAC - NOVEMBER 12, 2013
[ Next Day → ]
[ °C ]   °F
Weather ElementAverageHighLow
Temperature37.5 °F42.8 °F (3:20 pm)33.8 °F (12:50 am)
Dewpoint36.4 °F41 °F (10:20 pm)33.8 °F (12:50 am)
Humidity96 %100 % (12:50 am)79 % (4:00 pm)
Barometer30.30 in30.45 in (1:00 am)30.24 in (1:50 pm)
Wind Speed2.8 mph5.8 mph (10:20 pm)
Weather ElementAverage
Visibility2.2 mi
Wind DirectionENE (66.9 °)

Weather ElementTotal
Precipitation---
Heating Degree Days26.7 (Base 65)
Averaged from 55 records on November 12, 2013
WEATHER CONDITIONS BREAKOUT
WIND DIRECTION BREAKOUT
WEATHER BY HOUR - NOVEMBER 12, 2013
[ °C ]   °F
Local TimeTemperatureDewpointHumidityBarometerVisibilityWind DirectionWind SpeedGust SpeedPrecipitationEventsConditions
12:50 AM33.8 °F33.8 °F100 %30.39 in0.1 miVariable2.3 mphFogFog
1:00 AM34.0 °F34.0 °F100 %30.45 in0.0 miESE (110°)2.2 mphFogHeavy Fog
1:20 AM33.8 °F33.8 °F100 %30.39 inCalm
1:50 AM33.8 °F33.8 °F100 %30.36 inVariable2.3 mph
2:20 AM33.8 °F33.8 °F100 %30.36 inVariable1.2 mph
2:50 AM33.8 °F33.8 °F100 %30.36 inVariable2.3 mph
3:20 AM33.8 °F33.8 °F100 %30.33 inEast (90°)2.3 mph
3:50 AM33.8 °F33.8 °F100 %30.33 in0.1 miVariable2.3 mphFogFog
4:00 AM34.0 °F34.0 °F100 %30.40 in0.0 miEast (100°)2.2 mphFogHeavy Fog
4:20 AM33.8 °F33.8 °F100 %30.30 in0.1 miVariable3.5 mphFogFog
4:50 AM33.8 °F33.8 °F100 %30.30 in0.1 miVariable1.2 mphFogFog
5:20 AM33.8 °F33.8 °F100 %30.30 in0.1 miCalmFogFog
5:50 AM33.8 °F33.8 °F100 %30.30 in0.1 miSSE (150°)3.5 mphFogFog
6:20 AM33.8 °F33.8 °F100 %30.30 in0.1 miSSE (150°)4.6 mphFogFog
6:50 AM33.8 °F33.8 °F100 %30.30 in0.2 miVariable2.3 mphFogFog
7:00 AM34.0 °F34.0 °F100 %30.38 in0.0 miSSW (200°)2.2 mphFogPartial Fog
7:20 AM33.8 °F33.8 °F100 %30.30 in0.1 miVariable2.3 mphFogFog
7:50 AM33.8 °F33.8 °F100 %30.30 in0.1 miCalmFogFog
8:20 AM33.8 °F33.8 °F100 %30.30 in0.1 miVariable2.3 mphFogFog
8:50 AM33.8 °F33.8 °F100 %30.30 in0.1 miVariable3.5 mphFogFog
9:20 AM33.8 °F33.8 °F100 %30.30 in0.7 miVariable3.5 mphMist
9:50 AM33.8 °F33.8 °F100 %30.30 in1.2 miSouth (180°)4.6 mphMostly Cloudy
10:00 AM34.0 °F34.0 °F100 %30.38 in1.0 miSouth (190°)4.5 mphFogLight Fog
10:20 AM35.6 °F35.6 °F100 %30.30 in1.2 miVariable3.5 mphMostly Cloudy
10:50 AM37.4 °F37.4 °F100 %30.30 in1.9 miVariable3.5 mphMostly Cloudy
11:20 AM37.4 °F35.6 °F93 %30.30 in3.7 miSouth (180°)4.6 mphMostly Cloudy
11:50 AM39.2 °F37.4 °F93 %30.30 in4.3 miSouth (170°)4.6 mphMostly Cloudy
12:20 PM39.2 °F37.4 °F93 %30.27 in4.3 miVariable3.5 mphMostly Cloudy
12:50 PM41.0 °F37.4 °F87 %30.27 in5.0 miSouth (170°)4.6 mphMostly Cloudy
1:00 PM40.0 °F38.0 °F92 %30.33 in5.0 miSouth (180°)4.5 mphMostly Cloudy
1:20 PM41.0 °F37.4 °F87 %30.27 in5.0 miSouth (180°)4.6 mphMostly Cloudy
1:50 PM41.0 °F37.4 °F87 %30.24 in5.0 miVariable1.2 mphMostly Cloudy
2:20 PM41.0 °F35.6 °F81 %30.24 in6.2 miVariable2.3 mphMostly Cloudy
2:50 PM41.0 °F37.4 °F87 %30.24 in6.2 miVariable2.3 mphMostly Cloudy
3:20 PM42.8 °F37.4 °F81 %30.24 in6.2 miVariable2.3 mphMostly Cloudy
3:50 PM42.8 °F37.4 °F81 %30.24 in6.2 miVariable2.3 mphLight Drizzle
4:00 PM42.0 °F38.0 °F79 %30.29 in7.0 miSouth (180°)2.2 mphRainLight Drizzle
4:20 PM41.0 °F37.4 °F87 %30.24 in6.2 miVariable2.3 mphMostly Cloudy
4:50 PM41.0 °F37.4 °F87 %30.24 in6.2 miVariable2.3 mphMostly Cloudy
5:20 PM41.0 °F37.4 °F87 %30.24 in6.2 miSouth (170°)3.5 mphMostly Cloudy
5:50 PM41.0 °F37.4 °F87 %30.24 in3.7 miVariable2.3 mphRainLight Rain
6:20 PM39.2 °F39.2 °F100 %30.24 in2.5 miVariable2.3 mphRainLight Rain
6:50 PM39.2 °F39.2 °F100 %30.24 in1.4 miVariable1.2 mphRainLight Rain
7:00 PM40.0 °F39.0 °F93 %30.31 in1.0 miSouth (190°)2.2 mphRainLight Rain
7:20 PM39.2 °F39.2 °F100 %30.27 in0.9 miVariable3.5 mphRainLight Rain
7:50 PM39.2 °F39.2 °F100 %30.27 in0.5 miVariable3.5 mphFog-RainLight Rain
8:20 PM39.2 °F39.2 °F100 %30.27 in0.5 miVariable3.5 mphFog-RainLight Rain
8:50 PM39.2 °F39.2 °F100 %30.27 in0.5 miVariable2.3 mphFogFog
9:20 PM39.2 °F39.2 °F100 %30.27 in0.6 miVariable1.2 mphMostly Cloudy
9:50 PM39.2 °F39.2 °F100 %30.27 in0.6 miWest (260°)2.3 mphMostly Cloudy
10:00 PM40.0 °F40.0 °F100 %30.34 in1.0 miWest (260°)2.2 mphFogLight Fog
10:20 PM41.0 °F41.0 °F100 %30.30 in0.9 miWest (280°)5.8 mphMostly Cloudy
10:50 PM41.0 °F41.0 °F100 %30.30 in1.1 miWNW (290°)4.6 mphMostly Cloudy
11:20 PM41.0 °F41.0 °F100 %30.30 in1.1 miVariable3.5 mphLight Drizzle
11:50 PM41.0 °F41.0 °F100 %30.30 in1.2 miVariable2.3 mphRainRain
Hourly data recorded from ELLX, located miles away from Florange, France







STORIES FROM OUR PARTNERS